INTELSAT 33E DEB, 61990

Orbit data source: Space-Track

INTELSAT 33E DEB, 61990 is space debris in GEO originally from a launch on Wed, 24 Aug 2016 UTC launched from the French Guiana (FRGUI). Debris objects in space refer to the collection of defunct objects orbiting the Earth. Examples of debris include non-operational satellites, rocket bodies, and fragments generated from explosions, collisions, or faulty payload assembly.

Not visible in the next 10 days
Identifier
61990, 2016-053G
Orbit
GEO
Country
Flag of USUS / ITSO
Related business
Manufacturer
Boeing/ES
Mission
Spacecraft
Bus & Motor
Unknown
Mass
Unknown
Launch date (UTC)
2016-08-24 (10 years ago)
Launch vehicle
Unknown
Launch site
French Guiana (FRGUI)
Object type
Payload
Rocket body
Debris
Shape & HBR
Unknown shape, 1.1 m
Radar Cross Section
RCS unknown

Expand to show TLE details & history
Last TLE update: 1 day ago

TLE from 1 day ago
0 INTELSAT 33E DEB
1 61990U 16053G   26120.24346987 -.00000291  00000-0  00000+0 0  9996
2 61990   1.3452  75.1942 0155598 329.6512  29.4657  1.01391588  5667
Epoch: 2026-04-30T05:50Z
TLE epoch observation values (Epoch: 2026-04-30T05:50:35.796Z)
Latitude
-0.00001°
Longitude
129.36737°
Altitude
34,908.214 km
Speed
3.128 km/s
True Right ascension
05h 00m 50s
True Declination
0° 00' 00"
Sunlit
Object was in daylight at epoch
Visualization orbit readout
Latitude
Unknown
Longitude
Unknown
Altitude
Unknown
Speed
Unknown
Apparent Right ascension
Unknown
Apparent Declination
Unknown
Sunlit
N/A
Visualization observer readout
Local Sidereal Time
21:42:37
Azimuth
Unknown
Elevation
Unknown
Doppler factor
Unknown
Orbital elements
Apogee altitude
36,127.896 km
Perigee altitude
34,825.392 km
Semi-major axis
41,854.781 km
Eccentricity
0.01556
Inclination
1.3452°
RAAN
75.1942°
Arg. of periapsis
329.6512°
True anomaly
30.35783°
Mean anomaly
29.4657°
Eccentric anomaly
29.91025°
Mean motion
0.25347 °/min
Orbital period
1,420.29 mins
BSTAR
0
Loading maneuver chart data...
Computing Atmospheric mass density...
Loading historical data...
Loading historical data...
Loading historical data...
Loading historical data...
Loading historical data...
Loading historical data...
Loading historical data...

Documentation

Showing up to 5 results
|